START_TIME,STEP,MOV.,AL01,t_acc.,AL02,t_acc.,E37,t_acc.,H21,t_acc.
1981-08-24 21:00:35.320 ,2,0,0.,24.0,0.,24.0,0.,24.0,0.,24.0
1981-08-24 21:00:59.320 ,1,1,0.,24.0,0.,24.0,0.,24.0,0.,24.0
1981-08-24 21:01:23.320 ,1,0,0.,24.0,0.,24.0,0.,24.0,0.,24.0
1981-08-24 21:01:47.320 ,0,1,0.,24.0,0.,24.0,0.,24.0,0.,24.0
1981-08-24 21:02:11.320 ,0,0,0.,24.0,0.,24.0,0.,24.0,0.,24.0
1981-08-24 21:02:35.320 ,0,1,0.,24.0,0.,24.0,0.,24.0,0.,24.0
1981-08-24 21:02:59.320 ,0,0,0.,24.0,0.,24.0,0.,24.0,0.,24.0
1981-08-24 21:03:23.320 ,1,1,0.,24.0,0.,24.0,0.,24.0,0.,24.0
1981-08-24 21:03:47.320 ,1,0,0.,24.0,0.,24.0,0.,24.0,0.,24.0
1981-08-24 21:04:11.320 ,2,1,0.,24.0,0.,24.0,0.,24.0,0.,24.0
1981-08-24 21:04:35.320 ,2,0,0.,24.0,0.,24.0,0.,24.0,0.,24.0
1981-08-24 21:04:59.320 ,3,1,0.,24.0,0.,24.0,0.,24.0,0.,24.0
1981-08-24 21:05:23.320 ,3,0,0.,24.0,0.,24.0,0.,24.0,0.,24.0
1981-08-24 21:05:47.320 ,4,1,0.,24.0,0.,24.0,0.,24.0,0.,24.0
1981-08-24 21:06:11.320 ,4,0,0.,24.0,0.,24.0,0.,24.0,0.,24.0
1981-08-24 21:06:35.320 ,5,1,0.,24.0,0.,24.0,0.,24.0,0.,24.0
1981-08-24 21:06:59.320 ,5,0,1.,24.0,0.,24.0,0.,24.0,0.,24.0
1981-08-24 21:07:23.320 ,6,1,0.,24.0,0.,24.0,0.,24.0,0.,24.0
1981-08-24 21:07:47.320 ,6,0,0.,24.0,0.,24.0,0.,24.0,0.,24.0
1981-08-24 21:08:11.320 ,7,1,6.,24.0,0.,24.0,0.,24.0,0.,24.0
1981-08-24 21:08:35.320 ,7,0,27.,24.0,0.,24.0,0.,24.0,0.,24.0
1981-08-24 21:08:59.320 ,7,1,40.,24.0,0.,24.0,0.,24.0,0.,24.0
1981-08-24 21:09:23.320 ,6,1,18.,24.0,0.,24.0,0.,24.0,0.,24.0
1981-08-24 21:09:47.320 ,5,1,0.,24.0,0.,24.0,0.,24.0,0.,24.0
1981-08-24 21:10:11.320 ,0,0,0.,24.0,0.,24.0,0.,24.0,0.,24.0
1981-08-24 21:11:05.920 ,0,0,0.,24.0,0.,24.0,0.,24.0,0.,24.0
1981-08-24 21:11:23.320 ,1,1,0.,24.0,0.,24.0,0.,24.0,0.,24.0
1981-08-24 21:11:47.320 ,0,1,0.,24.0,0.,24.0,0.,24.0,0.,24.0
1981-08-24 21:12:11.320 ,0,1,0.,24.0,0.,24.0,0.,24.0,0.,24.0
1981-08-24 21:12:35.320 ,1,1,0.,24.0,0.,24.0,0.,24.0,0.,24.0
1981-08-24 21:12:59.320 ,2,1,1.,24.0,0.,24.0,0.,24.0,0.,24.0
1981-08-24 21:13:23.320 ,3,1,0.,24.0,0.,24.0,0.,24.0,0.,24.0
1981-08-24 21:13:47.320 ,4,1,0.,24.0,0.,24.0,0.,24.0,0.,24.0
1981-08-24 21:14:11.320 ,5,1,0.,24.0,0.,24.0,0.,24.0,0.,24.0
1981-08-24 21:14:35.320 ,6,1,0.,24.0,0.,24.0,0.,24.0,0.,24.0
1981-08-24 21:14:59.320 ,7,1,5.,24.0,0.,24.0,0.,24.0,0.,24.0
1981-08-24 21:15:23.320 ,7,1,38.,24.0,0.,24.0,0.,24.0,0.,24.0
1981-08-24 21:15:47.320 ,7,0,32.,24.0,0.,24.0,0.,24.0,0.,24.0
1981-08-24 21:16:11.320 ,6,1,30.,24.0,0.,24.0,0.,24.0,0.,24.0
1981-08-24 21:16:35.320 ,6,0,0.,24.0,0.,24.0,0.,24.0,0.,24.0
1981-08-24 21:16:59.320 ,5,1,0.,24.0,0.,24.0,0.,24.0,0.,24.0
1981-08-24 21:17:23.320 ,5,0,0.,24.0,0.,24.0,0.,24.0,0.,24.0
1981-08-24 21:17:47.320 ,4,1,0.,24.0,0.,24.0,0.,24.0,0.,24.0
1981-08-24 21:18:11.320 ,4,0,0.,24.0,0.,24.0,0.,24.0,0.,24.0
1981-08-24 21:18:35.320 ,3,1,0.,24.0,0.,24.0,0.,24.0,0.,24.0
1981-08-24 21:18:59.320 ,3,0,0.,24.0,0.,24.0,0.,24.0,0.,24.0
1981-08-24 21:19:23.320 ,2,1,0.,24.0,0.,24.0,0.,24.0,0.,24.0
1981-08-24 21:19:47.320 ,2,0,0.,24.0,0.,24.0,0.,24.0,0.,24.0
1981-08-24 21:20:11.320 ,1,1,0.,24.0,0.,24.0,0.,24.0,0.,24.0
1981-08-24 21:20:35.320 ,1,0,0.,24.0,0.,24.0,0.,24.0,0.,24.0
1981-08-24 21:20:59.320 ,0,1,0.,24.0,0.,24.0,0.,24.0,0.,24.0
1981-08-24 21:21:23.320 ,0,0,0.,24.0,0.,24.0,0.,24.0,0.,24.0
1981-08-24 21:21:47.320 ,0,1,0.,24.0,0.,24.0,0.,24.0,0.,24.0
1981-08-24 21:22:11.320 ,0,0,0.,24.0,0.,24.0,0.,24.0,0.,24.0
1981-08-24 21:22:35.320 ,1,1,0.,24.0,0.,24.0,0.,24.0,0.,24.0
1981-08-24 21:22:59.320 ,1,0,0.,24.0,0.,24.0,0.,24.0,0.,24.0
1981-08-24 21:23:23.320 ,2,1,0.,24.0,0.,24.0,0.,24.0,0.,24.0
1981-08-24 21:23:47.320 ,2,0,0.,24.0,0.,24.0,0.,24.0,0.,24.0
1981-08-24 21:24:11.320 ,3,1,0.,24.0,0.,24.0,0.,24.0,0.,24.0
1981-08-24 21:24:35.320 ,3,0,0.,24.0,0.,24.0,0.,24.0,0.,24.0
1981-08-24 21:24:59.320 ,4,1,1.,24.0,0.,24.0,0.,24.0,0.,24.0
1981-08-24 21:25:23.320 ,4,0,0.,24.0,0.,24.0,0.,24.0,0.,24.0
1981-08-24 21:25:47.320 ,5,1,0.,24.0,0.,24.0,0.,24.0,0.,24.0
1981-08-24 21:26:11.320 ,5,0,0.,24.0,0.,24.0,0.,24.0,0.,24.0
1981-08-24 21:26:35.320 ,6,1,0.,24.0,0.,24.0,0.,24.0,0.,24.0
1981-08-24 21:26:59.320 ,6,0,0.,24.0,0.,24.0,0.,24.0,0.,24.0
1981-08-24 21:27:23.320 ,7,1,8.,24.0,0.,24.0,0.,24.0,0.,24.0
1981-08-24 21:27:47.320 ,7,0,34.,24.0,0.,24.0,0.,24.0,0.,24.0
1981-08-24 21:28:11.320 ,7,1,40.,24.0,0.,24.0,0.,24.0,0.,24.0
1981-08-24 21:28:35.320 ,6,1,30.,24.0,0.,24.0,0.,24.0,0.,24.0
1981-08-24 21:28:59.320 ,5,1,0.,24.0,0.,24.0,0.,24.0,0.,24.0
1981-08-24 21:29:23.320 ,4,1,0.,24.0,0.,24.0,0.,24.0,0.,24.0
1981-08-24 21:29:47.320 ,3,1,0.,24.0,1.,24.0,0.,24.0,0.,24.0
1981-08-24 21:30:11.320 ,2,1,0.,24.0,0.,24.0,0.,24.0,0.,24.0
1981-08-24 21:30:35.320 ,1,1,0.,24.0,0.,24.0,0.,24.0,0.,24.0
1981-08-24 21:30:59.320 ,0,1,0.,24.0,0.,24.0,0.,24.0,0.,24.0
1981-08-24 21:31:23.320 ,0,1,0.,24.0,0.,24.0,0.,24.0,0.,24.0
1981-08-24 21:31:47.320 ,1,1,0.,24.0,0.,24.0,0.,24.0,0.,24.0
1981-08-24 21:32:11.320 ,2,1,0.,24.0,0.,24.0,0.,24.0,0.,24.0
1981-08-24 21:32:35.320 ,3,1,0.,24.0,0.,24.0,0.,24.0,0.,24.0
1981-08-24 21:32:59.320 ,4,1,0.,24.0,0.,24.0,0.,24.0,0.,24.0
1981-08-24 21:33:23.320 ,5,1,0.,24.0,0.,24.0,0.,24.0,0.,24.0
1981-08-24 21:33:47.320 ,6,1,0.,24.0,0.,24.0,0.,24.0,0.,24.0
1981-08-24 21:34:11.320 ,7,1,8.,24.0,0.,24.0,0.,24.0,0.,24.0
1981-08-24 21:34:35.320 ,0,0,29.,24.0,0.,24.0,0.,24.0,0.,24.0
1981-08-24 21:34:59.320 ,0,0,27.,24.0,0.,24.0,0.,24.0,0.,24.0
1981-08-24 21:35:23.320 ,6,1,25.,24.0,0.,24.0,0.,24.0,0.,24.0
1981-08-24 21:35:47.320 ,6,0,0.,24.0,0.,24.0,0.,24.0,0.,24.0
1981-08-24 21:36:11.320 ,5,1,0.,24.0,0.,24.0,0.,24.0,0.,24.0
1981-08-24 21:36:35.320 ,5,0,0.,24.0,0.,24.0,0.,24.0,0.,24.0
1981-08-24 21:36:59.320 ,4,1,0.,24.0,1.,24.0,0.,24.0,0.,24.0
1981-08-24 21:37:23.320 ,4,0,1.,24.0,0.,24.0,0.,24.0,0.,24.0
1981-08-24 21:37:47.320 ,3,1,0.,24.0,0.,24.0,0.,24.0,0.,24.0
1981-08-24 21:38:11.320 ,3,0,0.,24.0,0.,24.0,0.,24.0,0.,24.0
1981-08-24 21:38:35.320 ,2,1,0.,24.0,0.,24.0,0.,24.0,0.,24.0
1981-08-24 21:38:59.320 ,2,0,0.,24.0,0.,24.0,0.,24.0,0.,24.0
1981-08-24 21:39:23.320 ,1,1,0.,24.0,0.,24.0,0.,24.0,0.,24.0
1981-08-24 21:39:47.320 ,1,0,0.,24.0,0.,24.0,0.,24.0,0.,24.0
1981-08-24 21:40:11.320 ,0,1,0.,24.0,0.,24.0,0.,24.0,0.,24.0
1981-08-24 21:40:35.320 ,0,0,0.,24.0,0.,24.0,0.,24.0,0.,24.0
1981-08-24 21:40:59.320 ,0,1,0.,24.0,1.,24.0,0.,24.0,0.,24.0
1981-08-24 21:41:23.320 ,0,0,0.,24.0,0.,24.0,0.,24.0,0.,24.0
1981-08-24 21:41:47.320 ,1,1,0.,24.0,0.,24.0,0.,24.0,0.,24.0
1981-08-24 21:42:11.320 ,1,0,0.,24.0,0.,24.0,0.,24.0,0.,24.0
1981-08-24 21:42:35.320 ,2,1,0.,24.0,0.,24.0,0.,24.0,0.,24.0
1981-08-24 21:42:59.320 ,2,0,0.,24.0,0.,24.0,0.,24.0,0.,24.0
1981-08-24 21:43:23.320 ,3,1,0.,24.0,0.,24.0,0.,24.0,0.,24.0
1981-08-24 21:43:47.320 ,3,0,0.,24.0,0.,24.0,0.,24.0,0.,24.0
1981-08-24 21:44:11.320 ,4,1,1.,24.0,0.,24.0,0.,24.0,0.,24.0
1981-08-24 21:44:35.320 ,4,0,0.,24.0,0.,24.0,0.,24.0,0.,24.0
1981-08-24 21:44:59.320 ,5,1,0.,24.0,0.,24.0,0.,24.0,0.,24.0
1981-08-24 21:45:23.320 ,5,0,0.,24.0,0.,24.0,0.,24.0,0.,24.0
1981-08-24 21:45:47.320 ,6,1,0.,24.0,0.,24.0,0.,24.0,0.,24.0
1981-08-24 21:46:11.320 ,6,0,0.,24.0,0.,24.0,0.,24.0,0.,24.0
1981-08-24 21:46:35.320 ,7,1,15.,24.0,0.,24.0,0.,24.0,0.,24.0
1981-08-24 21:46:59.320 ,7,0,34.,24.0,0.,24.0,0.,24.0,0.,24.0
1981-08-24 21:47:23.320 ,7,1,30.,24.0,0.,24.0,0.,24.0,0.,24.0
1981-08-24 21:47:47.320 ,7,0,35.,24.0,0.,24.0,0.,24.0,0.,24.0
1981-08-24 21:48:11.320 ,6,1,23.,24.0,0.,24.0,0.,24.0,0.,24.0
1981-08-24 21:48:35.320 ,6,0,0.,24.0,0.,24.0,0.,24.0,0.,24.0
1981-08-24 21:48:59.320 ,5,1,0.,24.0,0.,24.0,0.,24.0,0.,24.0
1981-08-24 21:49:23.320 ,5,0,0.,24.0,0.,24.0,0.,24.0,0.,24.0
1981-08-24 21:49:47.320 ,4,1,0.,24.0,0.,24.0,0.,24.0,0.,24.0
1981-08-24 21:50:11.320 ,4,0,0.,24.0,0.,24.0,0.,24.0,0.,24.0
1981-08-24 21:50:35.320 ,3,1,0.,24.0,0.,24.0,0.,24.0,0.,24.0
1981-08-24 21:50:59.320 ,3,0,0.,24.0,0.,24.0,0.,24.0,0.,24.0
1981-08-24 21:51:23.320 ,2,1,0.,24.0,0.,24.0,0.,24.0,0.,24.0
1981-08-24 21:51:47.320 ,2,0,0.,24.0,0.,24.0,0.,24.0,0.,24.0
1981-08-24 21:52:11.320 ,1,1,0.,24.0,0.,24.0,0.,24.0,0.,24.0
1981-08-24 21:52:35.320 ,1,0,0.,24.0,0.,24.0,0.,24.0,0.,24.0
1981-08-24 21:52:59.320 ,0,1,0.,24.0,0.,24.0,0.,24.0,0.,24.0
1981-08-24 21:53:23.320 ,0,0,0.,24.0,0.,24.0,0.,24.0,0.,24.0
1981-08-24 21:53:47.320 ,0,1,0.,24.0,0.,24.0,0.,24.0,0.,24.0
1981-08-24 21:54:11.320 ,0,0,0.,24.0,0.,24.0,0.,24.0,0.,24.0
1981-08-24 21:54:35.320 ,1,1,0.,24.0,0.,24.0,0.,24.0,0.,24.0
1981-08-24 21:54:59.320 ,1,0,0.,24.0,0.,24.0,0.,24.0,0.,24.0
1981-08-24 21:55:23.320 ,2,1,0.,24.0,0.,24.0,0.,24.0,0.,24.0
1981-08-24 21:55:47.320 ,2,0,0.,24.0,0.,24.0,0.,24.0,0.,24.0
1981-08-24 21:56:11.320 ,3,1,0.,24.0,0.,24.0,0.,24.0,0.,24.0
1981-08-24 21:56:35.320 ,3,0,0.,24.0,0.,24.0,0.,24.0,0.,24.0
1981-08-24 21:56:59.320 ,4,1,0.,24.0,0.,24.0,0.,24.0,0.,24.0
1981-08-24 21:57:23.320 ,4,0,0.,24.0,0.,24.0,0.,24.0,0.,24.0
1981-08-24 21:57:47.320 ,5,1,0.,24.0,0.,24.0,0.,24.0,0.,24.0
1981-08-24 21:58:11.320 ,5,0,0.,24.0,0.,24.0,0.,24.0,0.,24.0
1981-08-24 21:58:35.320 ,6,1,0.,24.0,1.,24.0,0.,24.0,0.,24.0
1981-08-24 21:58:59.320 ,6,0,0.,24.0,0.,24.0,0.,24.0,0.,24.0
1981-08-24 21:59:23.320 ,7,1,8.,24.0,0.,24.0,0.,24.0,0.,24.0
1981-08-24 21:59:47.320 ,7,0,34.,24.0,0.,24.0,0.,24.0,0.,24.0
1981-08-24 22:00:11.320 ,7,1,29.,24.0,0.,24.0,0.,24.0,0.,24.0
1981-08-24 22:00:35.320 ,7,0,36.,24.0,0.,24.0,0.,24.0,0.,24.0
1981-08-24 22:00:59.320 ,6,1,21.,24.0,0.,24.0,0.,24.0,0.,24.0
1981-08-24 22:01:23.320 ,6,0,0.,24.0,0.,24.0,0.,24.0,0.,24.0
1981-08-24 22:01:47.320 ,5,1,0.,24.0,0.,24.0,0.,24.0,0.,24.0
1981-08-24 22:02:11.320 ,5,0,0.,24.0,0.,24.0,0.,24.0,0.,24.0
1981-08-24 22:02:35.320 ,4,1,0.,24.0,0.,24.0,0.,24.0,0.,24.0
1981-08-24 22:02:59.320 ,4,0,0.,24.0,1.,24.0,0.,24.0,0.,24.0
1981-08-24 22:03:23.320 ,3,1,0.,24.0,0.,24.0,0.,24.0,0.,24.0
1981-08-24 22:03:47.320 ,3,0,0.,24.0,0.,24.0,0.,24.0,0.,24.0
1981-08-24 22:04:11.320 ,2,1,0.,24.0,0.,24.0,0.,24.0,0.,24.0
1981-08-24 22:04:35.320 ,2,0,0.,24.0,0.,24.0,0.,24.0,0.,24.0
1981-08-24 22:04:59.320 ,1,1,0.,24.0,0.,24.0,0.,24.0,0.,24.0
1981-08-24 22:05:23.320 ,1,0,0.,24.0,0.,24.0,0.,24.0,0.,24.0
1981-08-24 22:05:47.320 ,0,1,0.,24.0,0.,24.0,0.,24.0,0.,24.0
1981-08-24 22:06:11.320 ,0,0,0.,24.0,0.,24.0,0.,24.0,0.,24.0
1981-08-24 22:06:35.320 ,0,1,0.,24.0,0.,24.0,0.,24.0,0.,24.0
1981-08-24 22:06:59.320 ,0,0,0.,24.0,0.,24.0,0.,24.0,0.,24.0
1981-08-24 22:07:23.320 ,1,1,0.,24.0,0.,24.0,0.,24.0,0.,24.0
1981-08-24 22:07:47.320 ,1,0,0.,24.0,0.,24.0,0.,24.0,0.,24.0
1981-08-24 22:08:11.320 ,2,1,0.,24.0,0.,24.0,0.,24.0,0.,24.0
1981-08-24 22:08:35.320 ,2,0,0.,24.0,0.,24.0,0.,24.0,0.,24.0
1981-08-24 22:08:59.320 ,3,1,0.,24.0,0.,24.0,0.,24.0,0.,24.0
1981-08-24 22:09:23.320 ,3,0,0.,24.0,0.,24.0,0.,24.0,0.,24.0
1981-08-24 22:09:47.320 ,4,1,0.,24.0,0.,24.0,0.,24.0,0.,24.0
1981-08-24 22:10:11.320 ,4,0,0.,24.0,0.,24.0,0.,24.0,0.,24.0
1981-08-24 22:10:35.320 ,5,1,0.,24.0,0.,24.0,0.,24.0,0.,24.0
1981-08-24 22:10:59.320 ,5,0,0.,24.0,0.,24.0,0.,24.0,0.,24.0
1981-08-24 22:11:23.320 ,6,1,0.,24.0,0.,24.0,0.,24.0,0.,24.0
1981-08-24 22:11:47.320 ,6,0,0.,24.0,0.,24.0,0.,24.0,0.,24.0
1981-08-24 22:12:11.320 ,7,1,12.,24.0,0.,24.0,0.,24.0,0.,24.0
1981-08-24 22:12:35.320 ,7,0,27.,24.0,0.,24.0,0.,24.0,0.,24.0
1981-08-24 22:12:59.320 ,7,1,28.,24.0,0.,24.0,0.,24.0,0.,24.0
1981-08-24 22:13:23.320 ,7,0,38.,24.0,0.,24.0,0.,24.0,0.,24.0
1981-08-24 22:13:47.320 ,6,1,23.,24.0,0.,24.0,0.,24.0,0.,24.0
1981-08-24 22:14:11.320 ,6,0,0.,24.0,0.,24.0,0.,24.0,0.,24.0
1981-08-24 22:14:35.320 ,5,1,0.,24.0,0.,24.0,0.,24.0,0.,24.0
1981-08-24 22:14:59.320 ,5,0,0.,24.0,0.,24.0,0.,24.0,0.,24.0
1981-08-24 22:15:23.320 ,4,1,0.,24.0,0.,24.0,0.,24.0,0.,24.0
1981-08-24 22:15:47.320 ,4,0,1.,24.0,0.,24.0,0.,24.0,0.,24.0
1981-08-24 22:16:11.320 ,3,1,0.,24.0,0.,24.0,0.,24.0,0.,24.0
1981-08-24 22:16:35.320 ,3,0,0.,24.0,0.,24.0,0.,24.0,0.,24.0
1981-08-24 22:16:59.320 ,2,1,0.,24.0,0.,24.0,0.,24.0,0.,24.0
1981-08-24 22:17:23.320 ,2,0,0.,24.0,0.,24.0,0.,24.0,0.,24.0
1981-08-24 22:17:47.320 ,1,1,0.,24.0,0.,24.0,0.,24.0,0.,24.0
1981-08-24 22:18:11.320 ,1,0,0.,24.0,0.,24.0,0.,24.0,0.,24.0
1981-08-24 22:18:35.320 ,0,1,0.,24.0,0.,24.0,0.,24.0,0.,24.0
1981-08-24 22:18:59.320 ,0,0,0.,24.0,0.,24.0,0.,24.0,0.,24.0
1981-08-24 22:19:23.320 ,0,1,0.,24.0,0.,24.0,0.,24.0,0.,24.0
1981-08-24 22:19:47.320 ,0,0,0.,24.0,0.,24.0,0.,24.0,0.,24.0
1981-08-24 22:20:11.320 ,1,1,0.,24.0,0.,24.0,0.,24.0,0.,24.0
1981-08-24 22:20:35.320 ,1,0,0.,24.0,0.,24.0,0.,24.0,0.,24.0
1981-08-24 22:20:59.320 ,2,1,1.,24.0,0.,24.0,0.,24.0,0.,24.0
1981-08-24 22:21:23.320 ,2,0,0.,24.0,0.,24.0,0.,24.0,0.,24.0
1981-08-24 22:21:47.320 ,3,1,0.,24.0,0.,24.0,0.,24.0,0.,24.0
1981-08-24 22:22:11.320 ,3,0,0.,24.0,0.,24.0,0.,24.0,0.,24.0
1981-08-24 22:22:35.320 ,4,1,0.,24.0,0.,24.0,0.,24.0,0.,24.0
1981-08-24 22:22:59.320 ,4,0,0.,24.0,0.,24.0,0.,24.0,0.,24.0
1981-08-24 22:23:23.320 ,5,1,0.,24.0,0.,24.0,0.,24.0,0.,24.0
1981-08-24 22:23:47.320 ,5,0,0.,24.0,0.,24.0,0.,24.0,0.,24.0
1981-08-24 22:24:11.320 ,6,1,0.,24.0,0.,24.0,0.,24.0,0.,24.0
1981-08-24 22:24:35.320 ,6,0,0.,24.0,0.,24.0,0.,24.0,0.,24.0
1981-08-24 22:24:59.320 ,7,1,15.,24.0,0.,24.0,0.,24.0,0.,24.0
1981-08-24 22:25:23.320 ,7,0,36.,24.0,0.,24.0,0.,24.0,0.,24.0
1981-08-24 22:25:47.320 ,7,1,22.,24.0,0.,24.0,0.,24.0,0.,24.0
1981-08-24 22:26:11.320 ,7,0,26.,24.0,0.,24.0,0.,24.0,0.,24.0
1981-08-24 22:26:35.320 ,6,1,25.,24.0,0.,24.0,0.,24.0,0.,24.0
1981-08-24 22:26:59.320 ,6,0,0.,24.0,0.,24.0,0.,24.0,0.,24.0
1981-08-24 22:27:23.320 ,5,1,0.,24.0,0.,24.0,0.,24.0,0.,24.0
1981-08-24 22:27:47.320 ,5,0,0.,24.0,0.,24.0,0.,24.0,0.,24.0
1981-08-24 22:28:11.320 ,4,1,0.,24.0,0.,24.0,0.,24.0,0.,24.0
1981-08-24 22:28:35.320 ,4,0,0.,24.0,0.,24.0,0.,24.0,0.,24.0
1981-08-24 22:28:59.320 ,3,1,0.,24.0,0.,24.0,0.,24.0,0.,24.0
1981-08-24 22:29:23.320 ,3,0,0.,24.0,0.,24.0,0.,24.0,0.,24.0
1981-08-24 22:29:47.320 ,2,1,0.,24.0,0.,24.0,0.,24.0,0.,24.0
1981-08-24 22:30:11.320 ,0,0,0.,24.0,0.,24.0,0.,24.0,0.,24.0
1981-08-24 22:30:35.320 ,1,1,0.,24.0,0.,24.0,0.,24.0,0.,24.0
1981-08-24 22:30:59.320 ,1,0,0.,24.0,0.,24.0,0.,24.0,0.,24.0
1981-08-24 22:31:23.320 ,0,1,0.,24.0,0.,24.0,0.,24.0,0.,24.0
1981-08-24 22:31:47.320 ,0,0,0.,24.0,0.,24.0,0.,24.0,0.,24.0
1981-08-24 22:32:11.320 ,0,1,0.,24.0,0.,24.0,0.,24.0,0.,24.0
1981-08-24 22:32:35.320 ,0,0,0.,24.0,0.,24.0,0.,24.0,0.,24.0
1981-08-24 22:32:59.320 ,1,1,0.,24.0,0.,24.0,0.,24.0,0.,24.0
1981-08-24 22:33:23.320 ,1,0,0.,24.0,0.,24.0,0.,24.0,0.,24.0
1981-08-24 22:33:47.320 ,2,1,0.,24.0,1.,24.0,0.,24.0,0.,24.0
1981-08-24 22:34:11.320 ,2,0,0.,24.0,0.,24.0,0.,24.0,0.,24.0
1981-08-24 22:34:35.320 ,3,1,0.,24.0,0.,24.0,0.,24.0,0.,24.0
1981-08-24 22:34:59.320 ,3,0,0.,24.0,0.,24.0,0.,24.0,0.,24.0
1981-08-24 22:35:23.320 ,4,1,0.,24.0,0.,24.0,0.,24.0,0.,24.0
1981-08-24 22:35:47.320 ,4,0,0.,24.0,0.,24.0,0.,24.0,0.,24.0
1981-08-24 22:36:11.320 ,5,1,0.,24.0,0.,24.0,0.,24.0,0.,24.0
1981-08-24 22:36:35.320 ,0,0,0.,24.0,0.,24.0,0.,24.0,0.,24.0
1981-08-24 22:37:55.720 ,0,0,5.,24.0,0.,24.0,0.,24.0,0.,24.0
1981-08-24 22:38:11.320 ,0,0,29.,24.0,0.,24.0,0.,24.0,0.,24.0
1981-08-24 22:38:35.320 ,7,1,47.,24.0,0.,24.0,0.,24.0,0.,24.0
1981-08-24 22:38:59.320 ,7,0,31.,24.0,0.,24.0,0.,24.0,0.,24.0
1981-08-24 22:39:23.320 ,6,1,23.,24.0,0.,24.0,0.,24.0,0.,24.0
1981-08-24 22:39:47.320 ,6,0,0.,24.0,0.,24.0,0.,24.0,0.,24.0
1981-08-24 22:40:11.320 ,5,1,0.,24.0,0.,24.0,0.,24.0,0.,24.0
1981-08-24 22:40:35.320 ,5,0,0.,24.0,0.,24.0,0.,24.0,0.,24.0
1981-08-24 22:40:59.320 ,4,1,0.,24.0,0.,24.0,0.,24.0,0.,24.0
1981-08-24 22:41:23.320 ,4,0,0.,24.0,0.,24.0,0.,24.0,0.,24.0
1981-08-24 22:41:47.320 ,3,1,0.,24.0,0.,24.0,0.,24.0,0.,24.0
1981-08-24 22:42:11.320 ,3,0,0.,24.0,0.,24.0,0.,24.0,0.,24.0
1981-08-24 22:42:35.320 ,2,1,0.,24.0,0.,24.0,0.,24.0,0.,24.0
1981-08-24 22:42:59.320 ,2,0,0.,24.0,0.,24.0,0.,24.0,0.,24.0
1981-08-24 22:43:23.310 ,1,1,0.,24.0,0.,24.0,0.,24.0,0.,24.0
1981-08-24 22:43:47.310 ,1,0,0.,24.0,0.,24.0,0.,24.0,0.,24.0
1981-08-24 22:44:11.310 ,0,1,0.,24.0,0.,24.0,0.,24.0,0.,24.0
1981-08-24 22:44:35.310 ,0,0,0.,24.0,0.,24.0,0.,24.0,0.,24.0
1981-08-24 22:44:59.310 ,0,1,0.,24.0,0.,24.0,0.,24.0,0.,24.0
1981-08-24 22:45:23.310 ,0,0,0.,24.0,0.,24.0,0.,24.0,0.,24.0
1981-08-24 22:45:47.310 ,1,1,0.,24.0,0.,24.0,0.,24.0,0.,24.0
1981-08-24 22:46:11.310 ,1,0,0.,24.0,0.,24.0,0.,24.0,0.,24.0
1981-08-24 22:46:35.310 ,2,1,0.,24.0,0.,24.0,0.,24.0,0.,24.0
1981-08-24 22:46:59.310 ,2,0,0.,24.0,1.,24.0,0.,24.0,0.,24.0
1981-08-24 22:47:23.310 ,3,1,0.,24.0,0.,24.0,0.,24.0,0.,24.0
1981-08-24 22:47:47.310 ,3,0,0.,24.0,1.,24.0,0.,24.0,0.,24.0
1981-08-24 22:48:11.310 ,4,1,0.,24.0,1.,24.0,0.,24.0,0.,24.0
1981-08-24 22:48:35.310 ,4,0,0.,24.0,0.,24.0,0.,24.0,0.,24.0
1981-08-24 22:48:59.310 ,5,1,0.,24.0,0.,24.0,0.,24.0,0.,24.0
1981-08-24 22:49:23.310 ,5,0,0.,24.0,0.,24.0,0.,24.0,0.,24.0
1981-08-24 22:49:47.310 ,6,1,0.,24.0,0.,24.0,0.,24.0,0.,24.0
1981-08-24 22:50:11.310 ,6,0,0.,24.0,0.,24.0,0.,24.0,0.,24.0
1981-08-24 22:50:35.310 ,7,1,14.,24.0,0.,24.0,0.,24.0,0.,24.0
1981-08-24 22:50:59.310 ,7,0,34.,24.0,0.,24.0,0.,24.0,0.,24.0
1981-08-24 22:51:23.310 ,7,1,27.,24.0,0.,24.0,0.,24.0,0.,24.0
1981-08-24 22:51:47.310 ,7,0,32.,24.0,0.,24.0,0.,24.0,0.,24.0
1981-08-24 22:52:11.310 ,6,1,26.,24.0,0.,24.0,0.,24.0,0.,24.0
1981-08-24 22:52:35.310 ,6,0,0.,24.0,0.,24.0,0.,24.0,0.,24.0
1981-08-24 22:52:59.310 ,5,1,0.,24.0,0.,24.0,0.,24.0,0.,24.0
1981-08-24 22:53:23.310 ,5,0,0.,24.0,0.,24.0,0.,24.0,0.,24.0
1981-08-24 22:53:47.310 ,4,1,0.,24.0,0.,24.0,0.,24.0,0.,24.0
1981-08-24 22:54:11.310 ,4,0,0.,24.0,0.,24.0,0.,24.0,0.,24.0
1981-08-24 22:54:35.310 ,3,1,1.,24.0,0.,24.0,0.,24.0,0.,24.0
1981-08-24 22:54:59.310 ,3,0,0.,24.0,0.,24.0,0.,24.0,0.,24.0
1981-08-24 22:55:23.310 ,2,1,0.,24.0,0.,24.0,0.,24.0,0.,24.0
1981-08-24 22:55:47.310 ,2,0,0.,24.0,0.,24.0,0.,24.0,0.,24.0
1981-08-24 22:56:11.310 ,1,1,0.,24.0,0.,24.0,0.,24.0,0.,24.0
1981-08-24 22:56:35.310 ,1,0,0.,24.0,0.,24.0,0.,24.0,0.,24.0
1981-08-24 22:56:59.310 ,0,1,0.,24.0,0.,24.0,0.,24.0,0.,24.0
1981-08-24 22:57:23.310 ,0,0,0.,24.0,0.,24.0,0.,24.0,0.,24.0
1981-08-24 22:57:47.310 ,0,1,0.,24.0,0.,24.0,0.,24.0,0.,24.0
1981-08-24 22:58:11.310 ,0,0,0.,24.0,0.,24.0,0.,24.0,0.,24.0
1981-08-24 22:58:35.310 ,1,1,0.,24.0,0.,24.0,0.,24.0,0.,24.0
1981-08-24 22:58:59.310 ,1,0,0.,24.0,0.,24.0,0.,24.0,0.,24.0
1981-08-24 22:59:23.310 ,2,1,0.,24.0,0.,24.0,0.,24.0,0.,24.0
1981-08-24 22:59:47.310 ,2,0,0.,24.0,0.,24.0,0.,24.0,0.,24.0
1981-08-24 23:00:11.310 ,3,1,0.,24.0,0.,24.0,0.,24.0,0.,24.0
1981-08-24 23:00:35.310 ,3,0,0.,24.0,0.,24.0,0.,24.0,0.,24.0
1981-08-24 23:00:59.310 ,4,1,0.,24.0,0.,24.0,0.,24.0,0.,24.0
1981-08-24 23:01:23.310 ,4,0,0.,24.0,0.,24.0,0.,24.0,0.,24.0
1981-08-24 23:01:47.310 ,5,1,0.,24.0,0.,24.0,0.,24.0,0.,24.0
1981-08-24 23:02:11.310 ,5,0,0.,24.0,0.,24.0,0.,24.0,0.,24.0
1981-08-24 23:02:35.310 ,6,1,0.,24.0,0.,24.0,0.,24.0,0.,24.0
1981-08-24 23:02:59.310 ,6,0,0.,24.0,0.,24.0,0.,24.0,0.,24.0
1981-08-24 23:03:23.310 ,7,1,6.,24.0,0.,24.0,0.,24.0,0.,24.0
1981-08-24 23:03:47.310 ,7,0,31.,24.0,0.,24.0,0.,24.0,0.,24.0
1981-08-24 23:04:11.310 ,7,1,30.,24.0,0.,24.0,0.,24.0,0.,24.0
1981-08-24 23:04:35.310 ,7,0,22.,24.0,0.,24.0,0.,24.0,0.,24.0
1981-08-24 23:04:59.310 ,6,1,25.,24.0,0.,24.0,0.,24.0,0.,24.0
1981-08-24 23:05:23.310 ,6,0,0.,24.0,0.,24.0,0.,24.0,0.,24.0
1981-08-24 23:05:47.310 ,5,1,0.,24.0,0.,24.0,0.,24.0,0.,24.0
1981-08-24 23:06:11.310 ,5,0,0.,24.0,0.,24.0,0.,24.0,0.,24.0
1981-08-24 23:06:35.310 ,4,1,0.,24.0,0.,24.0,0.,24.0,0.,24.0
1981-08-24 23:06:59.310 ,4,0,0.,24.0,0.,24.0,0.,24.0,0.,24.0
1981-08-24 23:07:23.310 ,3,1,0.,24.0,0.,24.0,0.,24.0,0.,24.0
1981-08-24 23:07:47.310 ,3,0,0.,24.0,0.,24.0,0.,24.0,0.,24.0
1981-08-24 23:08:11.310 ,2,1,0.,24.0,0.,24.0,0.,24.0,0.,24.0
1981-08-24 23:08:35.310 ,2,0,0.,24.0,0.,24.0,0.,24.0,0.,24.0
1981-08-24 23:08:59.310 ,1,1,0.,24.0,0.,24.0,0.,24.0,0.,24.0
1981-08-24 23:09:23.310 ,1,0,0.,24.0,0.,24.0,0.,24.0,0.,24.0
1981-08-24 23:09:47.310 ,0,1,0.,24.0,1.,24.0,0.,24.0,0.,24.0
1981-08-24 23:10:11.310 ,0,0,0.,24.0,0.,24.0,0.,24.0,0.,24.0
1981-08-24 23:10:35.310 ,0,1,0.,24.0,0.,24.0,0.,24.0,0.,24.0
1981-08-24 23:10:59.310 ,0,0,0.,24.0,0.,24.0,0.,24.0,0.,24.0
1981-08-24 23:11:23.310 ,1,1,0.,24.0,0.,24.0,0.,24.0,0.,24.0
1981-08-24 23:11:47.310 ,1,0,0.,24.0,0.,24.0,0.,24.0,0.,24.0
1981-08-24 23:12:11.310 ,2,1,0.,24.0,0.,24.0,0.,24.0,0.,24.0
1981-08-24 23:12:35.310 ,2,0,0.,24.0,0.,24.0,0.,24.0,0.,24.0
1981-08-24 23:12:59.310 ,3,1,0.,24.0,0.,24.0,0.,24.0,0.,24.0
1981-08-24 23:13:23.310 ,3,0,0.,24.0,1.,24.0,0.,24.0,0.,24.0
1981-08-24 23:13:47.310 ,4,1,0.,24.0,1.,24.0,0.,24.0,0.,24.0
1981-08-24 23:14:11.310 ,0,0,,0,,0,,0,,0
1981-08-24 23:14:11.310 ,0,0,0.,24.0,0.,24.0,0.,24.0,0.,24.0
1981-08-24 23:14:35.310 ,5,1,0.,24.0,0.,24.0,0.,24.0,0.,24.0
1981-08-24 23:14:59.310 ,5,0,0.,24.0,0.,24.0,0.,24.0,0.,24.0
1981-08-24 23:15:23.310 ,6,1,0.,24.0,0.,24.0,0.,24.0,0.,24.0
1981-08-24 23:15:47.310 ,6,0,0.,24.0,0.,24.0,0.,24.0,0.,24.0
1981-08-24 23:16:11.310 ,7,1,8.,24.0,0.,24.0,0.,24.0,0.,24.0
1981-08-24 23:16:35.310 ,7,0,28.,24.0,0.,24.0,0.,24.0,0.,24.0
1981-08-24 23:16:59.310 ,7,1,32.,24.0,0.,24.0,0.,24.0,0.,24.0
1981-08-24 23:17:23.310 ,7,0,27.,24.0,0.,24.0,0.,24.0,0.,24.0
1981-08-24 23:17:47.310 ,6,1,17.,24.0,0.,24.0,0.,24.0,0.,24.0
1981-08-24 23:18:11.310 ,6,0,0.,24.0,0.,24.0,0.,24.0,0.,24.0
1981-08-24 23:18:35.310 ,5,1,0.,24.0,0.,24.0,0.,24.0,0.,24.0
1981-08-24 23:18:59.310 ,5,0,0.,24.0,0.,24.0,0.,24.0,0.,24.0
1981-08-24 23:19:23.310 ,4,1,1.,24.0,0.,24.0,0.,24.0,0.,24.0
1981-08-24 23:19:47.310 ,4,0,0.,24.0,0.,24.0,0.,24.0,0.,24.0
1981-08-24 23:20:11.310 ,3,1,0.,24.0,0.,24.0,0.,24.0,0.,24.0
1981-08-24 23:20:35.310 ,3,0,0.,24.0,0.,24.0,0.,24.0,0.,24.0
1981-08-24 23:20:59.310 ,2,1,0.,24.0,0.,24.0,0.,24.0,0.,24.0
1981-08-24 23:21:23.310 ,2,0,0.,24.0,0.,24.0,0.,24.0,0.,24.0
1981-08-24 23:21:47.310 ,1,1,0.,24.0,0.,24.0,0.,24.0,0.,24.0
1981-08-24 23:22:11.310 ,1,0,0.,24.0,0.,24.0,0.,24.0,0.,24.0
1981-08-24 23:22:35.310 ,0,1,0.,24.0,0.,24.0,0.,24.0,0.,24.0
1981-08-24 23:22:59.310 ,0,0,0.,24.0,0.,24.0,0.,24.0,0.,24.0
1981-08-24 23:23:56.310 ,0,0,0.,24.0,0.,24.0,0.,24.0,0.,24.0
1981-08-24 23:24:11.310 ,1,1,0.,24.0,0.,24.0,0.,24.0,0.,24.0
1981-08-24 23:24:35.310 ,1,0,0.,24.0,0.,24.0,0.,24.0,0.,24.0
1981-08-24 23:24:59.310 ,2,1,0.,24.0,0.,24.0,0.,24.0,0.,24.0
1981-08-24 23:25:23.310 ,2,0,0.,24.0,0.,24.0,0.,24.0,0.,24.0
1981-08-24 23:25:47.310 ,3,1,0.,24.0,0.,24.0,0.,24.0,0.,24.0
1981-08-24 23:26:11.310 ,3,0,1.,24.0,0.,24.0,0.,24.0,0.,24.0
1981-08-24 23:26:35.310 ,4,1,0.,24.0,0.,24.0,0.,24.0,0.,24.0
1981-08-24 23:26:59.310 ,4,0,0.,24.0,0.,24.0,0.,24.0,0.,24.0
1981-08-24 23:27:23.310 ,5,1,0.,24.0,0.,24.0,0.,24.0,0.,24.0
1981-08-24 23:27:47.310 ,5,0,0.,24.0,0.,24.0,0.,24.0,0.,24.0
1981-08-24 23:28:11.310 ,6,1,0.,24.0,0.,24.0,0.,24.0,0.,24.0
1981-08-24 23:28:35.310 ,6,0,0.,24.0,0.,24.0,0.,24.0,0.,24.0
1981-08-24 23:28:59.310 ,7,1,5.,24.0,0.,24.0,0.,24.0,0.,24.0
1981-08-24 23:29:23.310 ,7,0,26.,24.0,0.,24.0,0.,24.0,0.,24.0
1981-08-24 23:29:47.310 ,7,1,28.,24.0,1.,24.0,0.,24.0,0.,24.0
1981-08-24 23:30:11.310 ,7,0,33.,24.0,0.,24.0,0.,24.0,0.,24.0
1981-08-24 23:30:35.310 ,6,1,22.,24.0,0.,24.0,0.,24.0,0.,24.0
1981-08-24 23:30:59.310 ,6,0,0.,24.0,0.,24.0,0.,24.0,0.,24.0
1981-08-24 23:31:23.310 ,5,1,0.,24.0,0.,24.0,0.,24.0,0.,24.0
1981-08-24 23:31:47.310 ,5,0,0.,24.0,0.,24.0,0.,24.0,0.,24.0
1981-08-24 23:32:11.310 ,4,1,0.,24.0,0.,24.0,0.,24.0,0.,24.0
1981-08-24 23:32:35.310 ,4,0,0.,24.0,0.,24.0,0.,24.0,0.,24.0
1981-08-24 23:32:59.310 ,3,1,0.,24.0,0.,24.0,0.,24.0,0.,24.0
1981-08-24 23:33:23.310 ,3,0,0.,24.0,0.,24.0,0.,24.0,0.,24.0
1981-08-24 23:33:47.310 ,2,1,0.,24.0,0.,24.0,0.,24.0,0.,24.0
1981-08-24 23:34:11.310 ,2,0,0.,24.0,0.,24.0,0.,24.0,0.,24.0
1981-08-24 23:34:35.310 ,1,1,0.,24.0,0.,24.0,0.,24.0,0.,24.0
1981-08-24 23:34:59.310 ,1,0,0.,24.0,1.,24.0,0.,24.0,0.,24.0
1981-08-24 23:35:23.310 ,0,1,0.,24.0,0.,24.0,0.,24.0,0.,24.0